This is the latest recevied weather packets stored in our database for station/object OM4MO-10. If no packets are shown the sender has not sent any weather packets the latest 10 day(s).
| Time | Temp. | Humidity | Pressure | Rain* | Wind** | Luminosity | Snow |
|---|---|---|---|---|---|---|---|
| 1777945890 | 10° C | 95% | 1015 hPa | - | - | - | - |
| 1777944690 | 10° C | 97% | 1015.1 hPa | - | - | - | - |
| 1777943490 | 9.44° C | 93% | 1015.2 hPa | - | - | - | - |
| 1777942290 | 9.44° C | 97% | 1015.2 hPa | - | - | - | - |
| 1777941090 | 9.44° C | 100% | 1015.3 hPa | - | - | - | - |
| 1777939889 | 8.33° C | 100% | 1015.5 hPa | - | - | - | - |
| 1777938689 | 10° C | 99% | 1015.7 hPa | - | - | - | - |
| 1777937489 | 10° C | 100% | 1015.9 hPa | - | - | - | - |
| 1777936289 | 8.89° C | 100% | 1016 hPa | - | - | - | - |
| 1777935089 | 7.78° C | 100% | 1016.3 hPa | - | - | - | - |
| 1777933889 | 7.22° C | 100% | 1016.4 hPa | - | - | - | - |
| 1777932689 | 8.33° C | 100% | 1016.6 hPa | - | - | - | - |
| 1777931489 | 8.33° C | 100% | 1016.6 hPa | - | - | - | - |
| 1777930288 | 8.33° C | 100% | 1016.5 hPa | - | - | - | - |
| 1777929088 | 8.89° C | 100% | 1016.7 hPa | - | - | - | - |
| 1777927888 | 9.44° C | 100% | 1016.6 hPa | - | - | - | - |
| 1777926688 | 11.11° C | 100% | 1016.5 hPa | - | - | - | - |
| 1777925488 | 10° C | 100% | 1016.4 hPa | - | - | - | - |
| 1777924288 | 11.11° C | 97% | 1015.9 hPa | - | - | - | - |
| 1777923088 | 11.11° C | 96% | 1008.3 hPa | - | - | - | - |
| 1777921888 | 12.78° C | 84% | 1009.4 hPa | - | - | - | - |
| 1777920687 | 12.22° C | 79% | 1011 hPa | - | - | - | - |
| 1777919487 | 13.89° C | 66% | 1013.3 hPa | - | - | - | - |
| 1777918287 | 15° C | 56% | 1015.6 hPa | - | - | - | - |
| 1777917087 | 15.56° C | 53% | 1017.4 hPa | - | - | - | - |
* Rain since midnight (hover to see other rain measurements)
** Current wind speed in m/s (hover to see current wind gust speed)